Regional Weather Roundup
Issued by NWS

Home | Current Version | Previous Version | Graphics & Text | Print | Product List | Glossary On
Versions: 1 2 3 4 5 6 7 8 9 10 11 12 13 14 15 16 17 18 19 20 21 22 23 24 25 26 27 28 29 30 31 32 33 34 35 36 37 38 39 40 41 42 43 44 45 46 47 48 49 50
000
ASUS45 KCYS 251710
RWRWY

WYOMING REGIONAL WEATHER ROUNDUP
NATIONAL WEATHER SERVICE CHEYENNE WY
1100 AM MDT THU MAY 25 2017

NOTE:  "FAIR" INDICATES FEW OR NO CLOUDS BELOW 12,000 FEET
WITH NO SIGNIFICANT WEATHER AND/OR OBSTRUCTIONS TO VISIBILITY.

WYZ001-251800-
YELLOWSTONE NATIONAL PARK

CITY           SKY/WX    TMP DP  RH WIND       PRES   REMARKS
LK YELLOWSTONE   N/A     38  22  52 VRB6      29.81R WCI  33
W YELLOWSTONE  NOT AVBL

$$
WYZ002>013-054>058-071-098>099-251800-
NORTHERN WYOMING

CITY           SKY/WX    TMP DP  RH WIND       PRES   REMARKS
JACKSON        SUNNY     52  16  24 SW10      29.75R
CODY           CLOUDY    53  23  31 N15       29.69R
GREYBULL       PTSUNNY   59  32  36 NW32G45   29.64R
WORLAND        FAIR      60  24  25 N12G21    29.64R
SHERIDAN       FAIR      58  38  47 NW23G30   29.60R
BUFFALO        FAIR      56  30  37 N17G25    29.63R
GILLETTE       FAIR      57  33  40 NW15      29.59S
HULETT         FAIR      55  30  38 W9        29.59R
NEWCASTLE      FAIR      59  27  29 NW16      29.58S

$$
WYZ014>020-022>026-101>103-251800-
CENTRAL WYOMING

CITY           SKY/WX    TMP DP  RH WIND       PRES   REMARKS
BIG PINEY      FAIR      50  21  32 VRB5      29.76R
PINEDALE       FAIR      48  21  34 NW10G21   29.75S
DUBOIS         FAIR      50  12  22 NW12G22   29.70R
LANDER         FAIR      57  31  37 E7        29.65S
RIVERTON       FAIR      59  15  18 NW25G32   29.65R
CASPER         FAIR      55  39  54 W5        29.64R
DOUGLAS        FAIR      57  47  69 VRB3      29.63R

$$
WYZ021-027>030-104>119-251800-
SOUTHERN WYOMING

CITY           SKY/WX    TMP DP  RH WIND       PRES   REMARKS
EVANSTON       PTSUNNY   52  36  54 W20       29.77S
ROCK SPRINGS   FAIR      51  34  52 W14       29.75R
DIXON            N/A     47  38  69 E6        29.79F
RAWLINS        LGT RAIN  43  38  82 SW15      29.74S
SARATOGA       CLOUDY    46  36  66 W9        29.77S
LARAMIE        FAIR      55  37  50 W15       29.71S
CHEYENNE       PTSUNNY   62  40  44 NW12      29.66S
TORRINGTON     FAIR      66  39  37 CALM      29.57S
PINE BLUFFS    FAIR      68  45  42 N17       29.63R

$$



USA.gov is the U.S. government's official web portal to all federal, state and local government web resources and services.